Regional Weather Roundup
Issued by NWS Portland, ME

Home | Current Version | Previous Version | Text Only | Print | Product List | Glossary On
Versions: 1 2 3 4 5 6 7 8 9 10 11 12 13 14 15 16 17 18 19 20 21 22 23 24 25 26 27 28 29 30 31 32 33 34 35 36 37 38 39 40 41 42 43 44 45 46 47 48 49 50
000
ASUS41 KGYX 200705
RWRGYX
WEATHER ROUNDUP FOR MAINE AND NEW HAMPSHIRE
NATIONAL WEATHER SERVICE GRAY ME
300 AM EDT SAT SEP 20 2014

MEZ002-005-006-010-012-015-018-020-021-024-026-027-029-200800-
MAINE

CITY           SKY/WX    TMP DP  RH WIND       PRES   REMARKS
PORTLAND       CLEAR     37  32  82 CALM      30.38F
SANFORD        CLEAR     30  27  86 CALM      30.38F
BAR HARBOR     CLEAR     39  37  93 S5        30.38F
WISCASSET      CLEAR     34  31  88 CALM      30.38F
ROCKLAND       CLEAR     46  32  57 SW6       30.37F
FRYEBURG       CLEAR     31  28  89 CALM      30.37F
LEWISTONAUBURN CLEAR     37  30  75 CALM      30.36F
AUGUSTA        CLEAR     38  33  82 S5        30.37F
WATERVILLE     CLEAR     36  30  80 SW5       30.31F
BANGOR         PTCLDY    41  34  76 S7        30.36F
GREENVILLE       N/A     39  29  67 S7        30.27F
MILLINOCKET    PTCLDY    38  34  85 VRB3      30.33F
HOULTON        MOCLDY    42  32  67 S9        30.30F
PRESQUE ISLE   MOCLDY    43  25  49 S7        30.25S
FRENCHVILLE    MOCLDY    40  28  62 S10       30.19F
CARIBOU        MOCLDY    42  27  55 S5        30.24F
$$

NHZ002-005-008-009-011-012-014-200800-
NEW HAMPSHIRE

CITY           SKY/WX    TMP DP  RH WIND       PRES   REMARKS
ROCHESTER      CLEAR     36  31  82 CALM      30.37F
NASHUA         CLEAR     36  33  88 CALM      30.39F
MANCHESTER     CLEAR     39  32  76 CALM      30.37F
CONCORD        CLEAR     32  30  92 CALM      30.38F
LACONIA        CLEAR     36  30  80 CALM      30.35F
PLYMOUTH       FAIR      30  30 100 CALM      30.37F
BERLIN         FOG       27  26  96 CALM      30.31R VSB 1/4
WHITEFIELD     CLEAR     29  26  89 CALM      30.31S
JAFFREY        CLEAR     35  33  92 CALM      30.37F
LEBANON        CLOUDY    41  35  79 SE3       30.33F
MT WASHINGTON  MOCLDY    30  28  93 W43         N/A  WCI  13
$$

VTZ005-007-008-200800-
VERMONT

CITY           SKY/WX    TMP DP  RH WIND       PRES   REMARKS
ST JOHNSBURY     N/A     37  34  89 MISG      30.30S
MONTPELIER     CLOUDY    42  36  79 S8        30.33S
BURLINGTON     CLEAR     50  37  61 S10       30.24F
$$

MAZ007-012-024-CTZ003-RIZ002-NYZ038-NYZ072-200800-
SOUTHERN NEW ENGLAND AND NY

CITY           SKY/WX    TMP DP  RH WIND       PRES   REMARKS
BOSTON         CLEAR     48  38  68 S6        30.40S
WORCESTER      CLEAR     42  36  79 S7        30.37F
NANTUCKET      MOCLDY    53  42  66 SE7       30.38S
PROVIDENCE     CLEAR     43  39  86 NW3       30.39S
HARTFORD       CLOUDY    45  40  82 NE3       30.36F
ALBANY         PTCLDY    52  43  71 S10       30.29F
NEW YORK CITY  MOCLDY    59  49  69 E3        30.32S
$$

ANZ081-ANZ082-ANZ150-NHZ014-MEZ023>029-200800-
COASTAL MARINE OBSERVATIONS

STATION/POSITION TIME  TEMP    WIND        PRES    WAVE
                       AIR SEA DIR/SP/G            HT/PER
                 (UTC) (F)     (DEG/KT/KT) (MB)    (FT/S)
MOUNT DESERT ROC 0700   52                   N/A
MATINICUS ROCK   0600          200/ 18/ 19 1028.9F
PORTLAND WX BUOY 0650   54 57  200/ 16/ 17 1028.4F   3/ 4
WELLS            0600   42 58  340/  3/  4 1028.5F
ISLE OF SHOALS   0600   54     190/ 17/ 19 1028.5S
JEFFREYS LEDGE   0621      58                N/A     3/ 8
CASHES LEDGE BUO 0650   54 57              1029.3F   2/ 9
$$

.............KEY..............
   WCI - WIND CHILL
   TC  - TEMPERATURE IN CELSIUS
   VSB - VISIBILITY IN MILES
   HX  - HEAT INDEX
   FAIR- INDICATES FEW OR NO CLOUDS BELOW 12,000 FT, WITH NO
         SIGNIFICANT WEATHER AND/OR OBSTRUCTIONS TO VISIBILITY.





USA.gov is the U.S. government's official web portal to all federal, state and local government web resources and services.